Terug naar catalogus

METEOR 1-11

ActiefWeerPO
NORAD 5917·PAYLOAD·🇷🇺 Russia

Gelanceerd Mar 30, 1972 vanaf Plesetsk Cosmodrome

Loading…

Volgende Passages (komende 24 uur)

TLE

VersSource: Space-Track

Epoch: Sep 14, 2026, 07:16 UTC

1 05917U 72022A   26257.30323968  .00000273  00000-0  14752-3 0  9995
2 05917  81.2320 198.4143 0055154  79.0810 281.6560 14.09295433796993

Volg METEOR 1-11 in realtime met AllMySat

Download on the App Store